• In Austria
  • List of Countries
  • For 7 days
  • Water Temperature
  • Satellite Maps
  • Weather Map
  • News
  • Weather Widgets
  • user-avatar
    Login

    Hourly Weather Kalgoorlie

    Today, 16 December, Saturday

    Time Temperature Precipitation Wind Pressure Humidity
    00:00 +33°C° 0 mm 6 mps 724 mmHg 27%
    01:00 +32°C° 0 mm 7 mps 723 mmHg 29%
    02:00 +30°C° 0 mm 7 mps 723 mmHg 29%
    03:00 +29°C° 0 mm 7 mps 723 mmHg 29%
    04:00 +28°C° 0 mm 7 mps 723 mmHg 29%
    05:00 +28°C° 0 mm 7 mps 723 mmHg 29%
    06:00 +31°C° 0 mm 8 mps 723 mmHg 25%
    07:00 +34°C° 0 mm 9 mps 723 mmHg 21%
    08:00 +37°C° 0 mm 10 mps 723 mmHg 18%
    09:00 +39°C° 0 mm 10 mps 722 mmHg 15%
    10:00 +43°C° 0 mm 11 mps 721 mmHg 12%
    11:00 +46°C° 0 mm 11 mps 721 mmHg 10%
    12:00 +46°C° 0 mm 12 mps 720 mmHg 9%
    13:00 +47°C° 0 mm 12 mps 720 mmHg 8%
    14:00 +47°C° 0 mm 13 mps 719 mmHg 7%
    15:00 +46°C° 0 mm 12 mps 719 mmHg 7%
    16:00 +46°C° 0 mm 12 mps 719 mmHg 8%
    17:00 +44°C° 0 mm 11 mps 718 mmHg 8%
    18:00 +42°C° 0 mm 9 mps 719 mmHg 9%
    19:00 +39°C° 0 mm 7 mps 719 mmHg 11%
    20:00 +38°C° 0 mm 6 mps 719 mmHg 12%
    21:00 +35°C° 0 mm 6 mps 719 mmHg 14%
    22:00 +34°C° 0 mm 6 mps 720 mmHg 15%
    23:00 +33°C° 0 mm 6 mps 720 mmHg 17%

    Tomorrow, 17 December, Sunday

    Time Temperature Precipitation Wind Pressure Humidity
    00:00 +30°C° 0 mm 7 mps 720 mmHg 19%
    01:00 +28°C° 0 mm 7 mps 720 mmHg 21%
    02:00 +27°C° 0 mm 8 mps 720 mmHg 23%
    03:00 +24°C° 0 mm 8 mps 720 mmHg 27%
    04:00 +23°C° 0 mm 7 mps 720 mmHg 30%
    05:00 +22°C° 0 mm 7 mps 720 mmHg 34%
    06:00 +23°C° 0 mm 7 mps 721 mmHg 33%
    07:00 +23°C° 0 mm 7 mps 721 mmHg 33%
    08:00 +24°C° 0 mm 7 mps 721 mmHg 32%
    09:00 +27°C° 0 mm 8 mps 721 mmHg 27%
    10:00 +29°C° 0 mm 8 mps 721 mmHg 22%
    11:00 +32°C° 0 mm 9 mps 721 mmHg 17%
    12:00 +33°C° 0 mm 10 mps 720 mmHg 16%
    13:00 +34°C° 0 mm 10 mps 720 mmHg 16%
    14:00 +34°C° 0 mm 11 mps 719 mmHg 15%
    15:00 +34°C° 0 mm 11 mps 719 mmHg 16%
    16:00 +34°C° 0 mm 12 mps 719 mmHg 17%
    17:00 +33°C° 0 mm 12 mps 718 mmHg 19%
    18:00 +29°C° 0 mm 11 mps 719 mmHg 27%
    19:00 +24°C° 0 mm 11 mps 719 mmHg 36%
    20:00 +21°C° 0 mm 10 mps 719 mmHg 45%
    21:00 +21°C° 0 mm 10 mps 719 mmHg 43%
    22:00 +19°C° 0 mm 10 mps 720 mmHg 42%
    23:00 +18°C° 0 mm 9 mps 720 mmHg 41%

    Day after tomorrow, 18 December, Monday

    Time Temperature Precipitation Wind Pressure Humidity
    00:00 +18°C° 0 mm 9 mps 720 mmHg 41%
    01:00 +17°C° 0 mm 8 mps 719 mmHg 41%
    02:00 +16°C° 0 mm 8 mps 719 mmHg 41%
    03:00 +16°C° 0 mm 8 mps 719 mmHg 44%
    04:00 +15°C° 0 mm 8 mps 719 mmHg 46%
    05:00 +15°C° 0 mm 9 mps 719 mmHg 48%
    06:00 +14°C° 0.1 mm 10 mps 719 mmHg 48%
    07:00 +16°C° 0.1 mm 11 mps 720 mmHg 47%
    08:00 +17°C° 0.1 mm 13 mps 720 mmHg 47%
    09:00 +18°C° 0 mm 13 mps 720 mmHg 39%
    10:00 +20°C° 0 mm 13 mps 720 mmHg 31%
    11:00 +23°C° 0 mm 13 mps 720 mmHg 24%
    12:00 +24°C° 0 mm 14 mps 720 mmHg 24%
    13:00 +24°C° 0 mm 15 mps 719 mmHg 24%
    14:00 +24°C° 0 mm 16 mps 719 mmHg 24%
    15:00 +24°C° 0 mm 14 mps 719 mmHg 25%
    16:00 +24°C° 0 mm 13 mps 720 mmHg 25%
    17:00 +24°C° 0 mm 12 mps 720 mmHg 26%
    18:00 +23°C° 0 mm 10 mps 721 mmHg 28%
    19:00 +23°C° 0 mm 8 mps 722 mmHg 29%
    20:00 +22°C° 0 mm 7 mps 722 mmHg 30%
    21:00 +21°C° 0 mm 6 mps 723 mmHg 33%
    22:00 +20°C° 0 mm 5 mps 723 mmHg 36%
    23:00 +19°C° 0 mm 4 mps 723 mmHg 38%

    19 December, Tuesday

    Time Temperature Precipitation Wind Pressure Humidity
    00:00 +19°C° 0 mm 4 mps 724 mmHg 40%
    01:00 +18°C° 0 mm 4 mps 724 mmHg 42%
    02:00 +18°C° 0 mm 4 mps 724 mmHg 44%
    03:00 +17°C° 0 mm 4 mps 724 mmHg 48%
    04:00 +17°C° 0 mm 4 mps 725 mmHg 51%
    05:00 +15°C° 0 mm 4 mps 725 mmHg 55%
    06:00 +16°C° 0 mm 5 mps 726 mmHg 51%
    07:00 +19°C° 0 mm 6 mps 726 mmHg 48%
    08:00 +20°C° 0 mm 7 mps 727 mmHg 44%
    09:00 +22°C° 0 mm 7 mps 727 mmHg 41%
    10:00 +23°C° 0 mm 7 mps 727 mmHg 39%
    11:00 +24°C° 0 mm 7 mps 727 mmHg 37%
    12:00 +26°C° 0 mm 7 mps 727 mmHg 36%
    13:00 +26°C° 0 mm 7 mps 727 mmHg 34%
    14:00 +27°C° 0 mm 7 mps 727 mmHg 33%
    15:00 +27°C° 0 mm 7 mps 727 mmHg 34%
    16:00 +27°C° 0 mm 7 mps 727 mmHg 34%
    17:00 +27°C° 0 mm 7 mps 728 mmHg 35%
    18:00 +26°C° 0 mm 7 mps 728 mmHg 38%
    19:00 +23°C° 0 mm 7 mps 729 mmHg 42%
    20:00 +22°C° 0 mm 7 mps 730 mmHg 45%
    21:00 +21°C° 0 mm 6 mps 730 mmHg 48%
    22:00 +21°C° 0 mm 6 mps 731 mmHg 50%
    23:00 +20°C° 0 mm 6 mps 731 mmHg 53%

    20 December, Wednesday

    Time Temperature Precipitation Wind Pressure Humidity
    00:00 +19°C° 0 mm 6 mps 731 mmHg 57%
    01:00 +17°C° 0 mm 6 mps 731 mmHg 61%
    02:00 +16°C° 0 mm 6 mps 730 mmHg 65%
    03:00 +16°C° 0 mm 6 mps 731 mmHg 68%
    04:00 +15°C° 0 mm 5 mps 731 mmHg 71%
    05:00 +14°C° 0 mm 5 mps 731 mmHg 74%
    06:00 +16°C° 0 mm 5 mps 732 mmHg 68%
    07:00 +17°C° 0 mm 5 mps 732 mmHg 61%
    08:00 +20°C° 0 mm 4 mps 732 mmHg 55%
    09:00 +22°C° 0 mm 4 mps 732 mmHg 46%
    10:00 +25°C° 0 mm 4 mps 732 mmHg 37%
    11:00 +26°C° 0 mm 4 mps 732 mmHg 28%
    12:00 +28°C° 0 mm 4 mps 731 mmHg 24%
    13:00 +29°C° 0 mm 4 mps 730 mmHg 21%
    14:00 +32°C° 0 mm 4 mps 730 mmHg 17%
    15:00 +32°C° 0 mm 4 mps 730 mmHg 16%
    16:00 +32°C° 0 mm 4 mps 730 mmHg 15%
    17:00 +33°C° 0 mm 4 mps 729 mmHg 14%
    18:00 +32°C° 0 mm 4 mps 730 mmHg 16%
    19:00 +30°C° 0 mm 4 mps 730 mmHg 17%
    20:00 +29°C° 0 mm 4 mps 730 mmHg 18%
    21:00 +28°C° 0 mm 5 mps 731 mmHg 19%
    22:00 +27°C° 0 mm 6 mps 731 mmHg 21%
    23:00 +26°C° 0 mm 6 mps 731 mmHg 22%

    21 December, Thursday

    Time Temperature Precipitation Wind Pressure Humidity
    00:00 +24°C° 0 mm 6 mps 731 mmHg 26%
    01:00 +23°C° 0 mm 7 mps 730 mmHg 29%
    02:00 +23°C° 0 mm 7 mps 730 mmHg 32%
    03:00 +22°C° 0 mm 7 mps 730 mmHg 37%
    04:00 +21°C° 0 mm 6 mps 730 mmHg 42%
    05:00 +20°C° 0 mm 6 mps 730 mmHg 46%
    06:00 +22°C° 0 mm 7 mps 730 mmHg 42%
    07:00 +24°C° 0 mm 7 mps 731 mmHg 37%
    08:00 +27°C° 0 mm 7 mps 731 mmHg 32%
    09:00 +29°C° 0 mm 6 mps 731 mmHg 27%
    10:00 +32°C° 0 mm 6 mps 730 mmHg 23%
    11:00 +34°C° 0 mm 5 mps 730 mmHg 18%
    12:00 +35°C° 0 mm 5 mps 729 mmHg 16%
    13:00 +36°C° 0 mm 4 mps 728 mmHg 14%
    14:00 +37°C° 0 mm 4 mps 727 mmHg 13%
    15:00 +37°C° 0 mm 4 mps 727 mmHg 12%
    16:00 +37°C° 0 mm 3 mps 727 mmHg 12%
    17:00 +38°C° 0 mm 3 mps 726 mmHg 11%
    18:00 +36°C° 0 mm 3 mps 726 mmHg 12%
    19:00 +35°C° 0 mm 3 mps 726 mmHg 13%
    20:00 +34°C° 0 mm 3 mps 726 mmHg 14%
    21:00 +33°C° 0 mm 3 mps 726 mmHg 15%
    22:00 +33°C° 0 mm 4 mps 726 mmHg 15%
    23:00 +32°C° 0 mm 4 mps 726 mmHg 16%
    Show more